Regional Weather Roundup
Issued by NWS Albany, NY

Home | Current Version | Previous Version | Graphics & Text | Print | Product List | Glossary Off
Versions: 1 2 3 4 5 6 7 8 9 10 11 12 13 14 15 16 17 18 19 20 21 22 23 24 25 26 27 28 29

000
ASUS41 KALY 240010
RWRALY

NEW YORK STATE HOURLY WEATHER ROUNDUP
NATIONAL WEATHER SERVICE ALBANY NY
800 PM EDT THU OCT 23 2014

NOTE: "FAIR" INDICATES FEW OR NO CLOUDS BELOW 12,000 FEET WITH NO
SIGNIFICANT WEATHER AND/OR NO OBSTRUCTIONS TO VISIBILITY.

NYZ032-033-038>043-046>054-057>066-NYZ062>081-240100-
EAST


CITY           SKY/WX    TMP DP  RH WIND       PRES   REMARKS
ALBANY         LGT RAIN  48  45  89 N8        29.85S
GLENS FALLS    LGT RAIN  47  44  90 NE6       29.86R FOG
POUGHKEEPSIE   CLOUDY    51  43  74 N15G24    29.79R
NEWBURGH       CLOUDY    50  46  87 N8        29.80R
MONTGOMERY     CLOUDY    50  48  93 CALM      29.79R
WHITE PLAINS   MOCLDY    50  43  77 N24G30    29.73R
ISLIP          CLOUDY    52  45  77 N18G28    29.68R
NEW YORK CITY  MOCLDY    53  46  77 NW21G29   29.75R
CENTRAL PARK   CLOUDY    52  47  83 VRB6      29.79R
$$

NYZ005>009-017-018-044>046-055-056-240100-
CENTRAL


CITY           SKY/WX    TMP DP  RH WIND       PRES   REMARKS
FULTON         CLOUDY    50  44  80 N15G24    29.97R
SYRACUSE       LGT RAIN  50  45  83 N8        29.96R
ROME           CLOUDY    46  42  86 NW15      29.94R
ELMIRA         CLOUDY    52  46  80 NE10      29.94F
BINGHAMTON     LGT RAIN  46  43  89 N17G24    29.89S FOG
MONTICELLO     CLOUDY    46  43  87 NW8G18    29.84R
$$

NYZ026>034-041>043-240100-
NORTH


CITY           SKY/WX    TMP DP  RH WIND       PRES   REMARKS
WATERTOWN      CLOUDY    50  43  77 NE12      29.98R
FORT DRUM      NOT AVBL
MASSENA        CLOUDY    47  43  86 NE16      30.00S
SARANAC LAKE   CLOUDY    40  39  97 N7        29.90S
PLATTSBURGH    LGT RAIN  43  42  97 N14       29.94R FOG
$$

NYZ001>004-010>016-019>021-240100-
WEST


CITY           SKY/WX    TMP DP  RH WIND       PRES   REMARKS
NIAGARA FALLS  CLEAR     51  41  68 N10       30.04S
BUFFALO        PTCLDY    53  41  63 NW9       30.04S
DUNKIRK        CLEAR     47  44  90 S5        30.06S
JAMESTOWN      CLEAR     46  43  87 W7        30.05F
WELLSVILLE     CLOUDY    50  38  63 NW14G23   30.01S
ROCHESTER      CLOUDY    57  43  59 NW12      29.99S
PENN YAN       CLOUDY    50  47  89 VRB5      29.97S
$$

             KEY
       WCI = WIND CHILL INDEX
       VSB = VISIBILITY
       HX  = HEAT INDEX
$$



USA.gov is the U.S. government's official web portal to all federal, state and local government web resources and services.